Flag Weather past 2 weeks in Moroni, Comoros

Now
81 °F

Scattered clouds.


Feels Like: 86 °F
Forecast: 78 / 90 °F
Wind: 9 mph from Southwest

Location: Dzaoudzi / Pamanzi Mayotte

Current Time: Nov 24, 2014 at 6:15:07 AM

Latest Report: Nov 24, 2014 at 6:00 AM


Visibility: N/A

Pressure: 29.89 "Hg

Humidity: 84%

Dew point: 75 °F

Location of MoroniLocation

Historic Weather in Moroni — Graph

°F

Moroni temperature yesterday

Maximum temperature yesterday: 88 °F (at 12:30 PM)
Minimum temperature yesterday: 79 °F (at 12:00 AM)
Average temperature yesterday: 83 °F

Past Weeks' High & Low Weather Summary

 TemperatureHumidityPressure
High90 °F (Nov 9, 11:30 AM)94% (Nov 9, 6:00 AM)30.01 "Hg (Nov 9, 6:00 AM)
Low75 °F (Nov 13, 12:04 PM)58% (Nov 15, 3:30 PM)29.80 "Hg (Nov 19, 4:00 PM)
Average81 °F78%29.91 "Hg
* Reported Nov 9 5:00 AM — Nov 24 5:00 AM, Moroni, Weather by CustomWeather, © 2014

Note: Actual official high and low records may vary slightly from our data, if they occured in-between our weather recording intervals... More about our weather records

Advertising

Moroni weather history for previous 24 hours

 ConditionsComfort  
Time TempWeatherWind HumidityBarometerVisibility
5:00 AM
Nov 24
81 °FPartly cloudy.8 mph84%29.89 "HgN/A
4:30 AM81 °FWarm.9 mph84%29.89 "HgN/A
4:00 AM81 °FPassing clouds.10 mph79%29.86 "HgN/A
3:30 AM79 °FWarm.5 mph84%29.86 "HgN/A
3:00 AM79 °FWarm.6 mph84%29.86 "HgN/A
2:30 AM81 °FWarm.6 mph79%29.83 "HgN/A
2:00 AM79 °FWarm.6 mph89%29.83 "HgN/A
1:30 AM79 °FWarm.1 mph84%29.83 "HgN/A
1:00 AM81 °FWarm.3 mph84%29.86 "HgN/A
12:30 AM81 °FWarm.6 mph84%29.86 "HgN/A
12:00 AM81 °FWarm.9 mph84%29.86 "HgN/A
11:30 PM
Nov 23
81 °FWarm.8 mph84%29.86 "HgN/A
11:00 PM81 °FWarm.6 mph84%29.89 "HgN/A
10:30 PM82 °FWarm.5 mph79%29.92 "HgN/A
10:00 PM82 °FWarm.2 mph79%29.92 "HgN/A
9:30 PM82 °FWarm.5 mph79%29.92 "HgN/A
9:00 PM82 °FWarm.7 mph79%29.92 "HgN/A
8:30 PM82 °FWarm.5 mph74%29.89 "HgN/A
8:00 PM82 °FPassing clouds.5 mph79%29.89 "HgN/A
7:30 PM82 °FPassing clouds.6 mph74%29.89 "HgN/A
7:00 PM82 °FOvercast.7 mph74%29.89 "HgN/A
6:30 PM84 °FMostly cloudy.7 mph74%29.86 "HgN/A
6:00 PM84 °FBroken clouds.7 mph74%29.86 "HgN/A
5:36 PM84 °FBroken clouds.6 mph70%29.86 "HgN/A
5:00 PM86 °FBroken clouds.6 mph66%29.86 "HgN/A
4:30 PM86 °FBroken clouds.6 mph66%29.86 "HgN/A
4:00 PM86 °FBroken clouds.5 mph66%29.86 "HgN/A
3:30 PM86 °FBroken clouds.6 mph66%29.86 "HgN/A
3:00 PM88 °FScattered clouds.3 mph62%29.86 "HgN/A
2:30 PM86 °FScattered clouds.5 mph66%29.86 "HgN/A
2:00 PM86 °FScattered clouds.6 mph66%29.86 "HgN/A
1:30 PM88 °FScattered clouds.6 mph62%29.89 "HgN/A
1:00 PM88 °FScattered clouds.5 mph62%29.89 "HgN/A
12:30 PM88 °FScattered clouds.5 mph62%29.89 "HgN/A
12:00 PM86 °FScattered clouds.6 mph66%29.92 "HgN/A
11:30 AM86 °FScattered clouds.6 mph66%29.92 "HgN/A
11:00 AM86 °FPassing clouds.8 mph70%29.95 "HgN/A
10:30 AM86 °FScattered clouds.9 mph70%29.95 "HgN/A
10:00 AM86 °FScattered clouds.7 mph70%29.95 "HgN/A
9:30 AM86 °FScattered clouds.8 mph70%29.95 "HgN/A
9:00 AM86 °FScattered clouds.7 mph70%29.98 "HgN/A
8:30 AM86 °FScattered clouds.7 mph66%29.98 "HgN/A
8:00 AM84 °FScattered clouds.5 mph70%29.95 "HgN/A
7:30 AM84 °FScattered clouds.6 mph70%29.95 "HgN/A
7:00 AM84 °FScattered clouds.5 mph70%29.95 "HgN/A
6:30 AM82 °FPassing clouds.3 mph74%29.95 "HgN/A
6:00 AM81 °FScattered clouds.6 mph79%29.92 "HgN/A
Weather by CustomWeather, © 2014

See weather overviewHow to use our weather pages